| time (UTC) | temp C | wind direction | speed KPH | gust KPH | rain 1hr cm | rain 24hr cm | rain mn cm | humidity % | barometer mb |
| 20260507134502 | 12 | 115 | 4.8 | 12.9 | 0.00 | 0.00 | 0.00 | 41 | 1017.1 |
| 20260507133058 | 12 | 212 | 1.6 | 14.5 | 0.00 | 0.00 | 0.00 | 41 | 1017.2 |
| 20260507131554 | 12 | 212 | 8.0 | 14.5 | 0.00 | 0.00 | 0.00 | 43 | 1017.0 |
| 20260507130101 | 13 | 212 | 6.4 | 16.1 | 0.00 | 0.00 | 0.00 | 40 | 1017.0 |
| 20260507124551 | 12 | 212 | 3.2 | 14.5 | 0.00 | 0.00 | 0.00 | 41 | 1017.0 |
| 20260507123040 | 12 | 156 | 4.8 | 14.5 | 0.00 | 0.00 | 0.00 | 41 | 1016.9 |
| 20260507121535 | 12 | 183 | 4.8 | 12.9 | 0.00 | 0.00 | 0.00 | 40 | 1016.9 |
| 20260507120033 | 12 | 212 | 6.4 | 16.1 | 0.00 | 0.00 | 0.00 | 41 | 1016.9 |
| 20260507114526 | 12 | 212 | 6.4 | 16.1 | 0.00 | 0.00 | 0.00 | 42 | 1016.9 |
| 20260507113026 | 11 | 212 | 3.2 | 12.9 | 0.00 | 0.00 | 0.00 | 43 | 1016.9 |
| 20260507111520 | 12 | 212 | 3.2 | 14.5 | 0.00 | 0.00 | 0.00 | 43 | 1016.9 |
| 20260507110012 | 12 | 127 | 1.6 | 17.7 | 0.00 | 0.00 | 0.00 | 44 | 1016.9 |
| 20260507104508 | 12 | 202 | 3.2 | 12.9 | 0.00 | 0.00 | 0.00 | 41 | 1016.8 |
| 20260507103004 | 11 | 212 | 3.2 | 8.0 | 0.00 | 0.00 | 0.00 | 40 | 1016.9 |
| 20260507101600 | 11 | 212 | 0.0 | 8.0 | 0.00 | 0.00 | 0.00 | 39 | 1016.9 |
| 20260507100107 | 10 | 217 | 0.0 | 11.3 | 0.00 | 0.00 | 0.00 | 42 | 1017.0 |
| 20260507094551 | 10 | 148 | 1.6 | 8.0 | 0.00 | 0.00 | 0.00 | 40 | 1017.0 |
| 20260507093047 | 10 | 207 | 1.6 | 8.0 | 0.00 | 0.00 | 0.00 | 41 | 1017.0 |
| 20260507091545 | 10 | 185 | 1.6 | 12.9 | 0.00 | 0.00 | 0.00 | 40 | 1016.9 |
| 20260507090038 | 9 | 212 | 4.8 | 12.9 | 0.00 | 0.00 | 0.00 | 40 | 1016.9 |
| 20260507084542 | 9 | 212 | 3.2 | 9.7 | 0.00 | 0.00 | 0.00 | 40 | 1016.9 |
| 20260507083029 | 8 | 221 | 4.8 | 12.9 | 0.00 | 0.00 | 0.00 | 39 | 1016.9 |
| 20260507081525 | 8 | 238 | 4.8 | 14.5 | 0.00 | 0.00 | 0.00 | 38 | 1016.9 |
| 20260507080020 | 8 | 231 | 4.8 | 12.9 | 0.00 | 0.00 | 0.00 | 36 | 1016.7 |
| 20260507074515 | 7 | 246 | 6.4 | 16.1 | 0.00 | 0.00 | 0.00 | 32 | 1016.7 |
| 20260507073012 | 7 | 259 | 6.4 | 12.9 | 0.00 | 0.00 | 0.00 | 20 | 1016.7 |
| 20260507071507 | 6 | 239 | 3.2 | 9.7 | 0.00 | 0.00 | 0.00 | 5 | 1016.8 |
| 20260507070004 | 5 | 238 | 1.6 | 9.7 | 0.00 | 0.00 | 0.00 | 1 | 1016.8 |
| 20260507064600 | 4 | 241 | 1.6 | 4.8 | 0.00 | 0.00 | 0.00 | 1 | 1016.8 |
| 20260507063054 | 3 | 217 | 0.0 | 4.8 | 0.00 | 0.00 | 0.00 | 1 | 1016.7 |
| 20260507061550 | 2 | 217 | 1.6 | 4.8 | 0.00 | 0.00 | 0.00 | 1 | 1016.6 |
| 20260507060045 | 2 | 217 | 0.0 | 1.6 | 0.00 | 0.00 | 0.00 | 1 | 1016.6 |
| 20260507054602 | 2 | 217 | 0.0 | 0.0 | 0.00 | 0.00 | 0.00 | 1 | 1016.7 |
| 20260507053037 | 1 | 217 | 0.0 | 0.0 | 0.00 | 0.00 | 0.00 | 1 | 1016.7 |
| 20260507051533 | 1 | 217 | 0.0 | 0.0 | 0.00 | 0.00 | 0.00 | 1 | 1016.6 |
| 20260507050039 | 1 | 217 | 0.0 | 0.0 | 0.00 | 0.00 | 0.00 | 1 | 1016.5 |
| 20260507044524 | 0 | 217 | 0.0 | 0.0 | 0.00 | 0.00 | 0.00 | 1 | 1016.4 |
| 20260507043019 | 0 | 217 | 0.0 | 1.6 | 0.00 | 0.00 | 0.00 | 1 | 1016.3 |
| 20260507041515 | 0 | 217 | 0.0 | 1.6 | 0.00 | 0.00 | 0.00 | 1 | 1016.3 |
| 20260507040011 | 0 | 217 | 0.0 | 0.0 | 0.00 | 0.00 | 0.00 | 1 | 1016.3 |
| 20260507034507 | 0 | 217 | 0.0 | 0.0 | 0.00 | 0.00 | 0.00 | 1 | 1016.2 |
| 20260507033002 | 0 | 217 | 0.0 | 1.6 | 0.00 | 0.00 | 0.00 | 1 | 1016.2 |
| 20260507031600 | 0 | 217 | 0.0 | 3.2 | 0.00 | 0.00 | 0.00 | 1 | 1016.1 |
| 20260507030053 | 0 | 217 | 0.0 | 0.0 | 0.00 | 0.00 | 0.00 | 1 | 1016.1 |
| 20260507024553 | 1 | 217 | 0.0 | 3.2 | 0.00 | 0.00 | 0.00 | 1 | 1016.0 |
| 20260507023044 | 1 | 217 | 0.0 | 1.6 | 0.00 | 0.00 | 0.00 | 1 | 1015.8 |
| 20260507021540 | 1 | 217 | 0.0 | 1.6 | 0.00 | 0.00 | 0.00 | 1 | 1015.8 |
| 20260507020045 | 1 | 217 | 0.0 | 1.6 | 0.00 | 0.00 | 0.00 | 1 | 1015.8 |
| 20260507014534 | 1 | 217 | 0.0 | 3.2 | 0.00 | 0.00 | 0.00 | 1 | 1015.9 |
| 20260507013026 | 2 | 217 | 0.0 | 1.6 | 0.00 | 0.00 | 0.00 | 1 | 1015.8 |
| 20260507011524 | 2 | 217 | 0.0 | 3.2 | 0.00 | 0.00 | 0.00 | 1 | 1015.7 |
| 20260507010028 | 2 | 217 | 0.0 | 6.4 | 0.00 | 0.00 | 0.00 | 1 | 1015.6 |
| 20260507004515 | 3 | 212 | 3.2 | 9.7 | 0.00 | 0.00 | 0.00 | 1 | 1015.7 |
| 20260507003009 | 3 | 212 | 1.6 | 8.0 | 0.00 | 0.00 | 0.00 | 1 | 1015.6 |
| 20260507001506 | 3 | 212 | 0.0 | 6.4 | 0.00 | 0.00 | 0.00 | 1 | 1015.6 |
| 20260507000127 | 2 | 212 | 1.6 | 6.4 | 0.00 | 0.00 | 0.00 | 2 | 1015.6 |
| 20260506234618 | 2 | 212 | 0.0 | 1.6 | 0.00 | 0.00 | 0.00 | 11 | 1015.6 |
| 20260506233052 | 3 | 212 | 0.0 | 6.4 | 0.00 | 0.00 | 0.00 | 11 | 1015.6 |
| 20260506231548 | 3 | 212 | 1.6 | 6.4 | 0.00 | 0.00 | 0.00 | 11 | 1015.5 |
| 20260506230047 | 3 | 212 | 1.6 | 6.4 | 0.00 | 0.00 | 0.00 | 13 | 1015.5 |
| 20260506224539 | 3 | 212 | 0.0 | 6.4 | 0.00 | 0.00 | 0.00 | 16 | 1015.4 |
| 20260506223034 | 3 | 202 | 1.6 | 6.4 | 0.00 | 0.00 | 0.00 | 18 | 1015.4 |
| 20260506221538 | 3 | 212 | 1.6 | 6.4 | 0.00 | 0.00 | 0.00 | 23 | 1015.3 |
| 20260506220031 | 3 | 201 | 1.6 | 4.8 | 0.00 | 0.00 | 0.00 | 27 | 1015.3 |
| 20260506214524 | 3 | 212 | 1.6 | 6.4 | 0.00 | 0.00 | 0.00 | 30 | 1015.2 |
| 20260506213020 | 3 | 194 | 3.2 | 8.0 | 0.00 | 0.00 | 0.00 | 34 | 1015.2 |
| 20260506211526 | 4 | 203 | 1.6 | 8.0 | 0.00 | 0.00 | 0.00 | 37 | 1015.2 |
| 20260506210019 | 4 | 212 | 3.2 | 8.0 | 0.00 | 0.00 | 0.00 | 42 | 1015.2 |
| 20260506204514 | 4 | 179 | 1.6 | 8.0 | 0.00 | 0.00 | 0.00 | 46 | 1015.2 |
| 20260506203002 | 5 | 207 | 3.2 | 9.7 | 0.00 | 0.00 | 0.00 | 48 | 1015.2 |
| 20260506201559 | 5 | 212 | 3.2 | 11.3 | 0.00 | 0.00 | 0.00 | 49 | 1015.1 |
| 20260506200054 | 5 | 212 | 3.2 | 11.3 | 0.00 | 0.00 | 0.00 | 49 | 1015.2 |
| 20260506194550 | 5 | 212 | 1.6 | 14.5 | 0.00 | 0.00 | 0.00 | 48 | 1015.2 |
| 20260506193051 | 6 | 179 | 3.2 | 9.7 | 0.00 | 0.00 | 0.00 | 49 | 1015.0 |
| 20260506191541 | 6 | 221 | 4.8 | 16.1 | 0.00 | 0.00 | 0.00 | 50 | 1014.9 |
| 20260506190035 | 6 | 212 | 8.0 | 16.1 | 0.00 | 0.00 | 0.00 | 49 | 1014.9 |
| 20260506184537 | 7 | 212 | 6.4 | 19.3 | 0.00 | 0.00 | 0.00 | 48 | 1014.8 |
| 20260506183027 | 7 | 212 | 4.8 | 16.1 | 0.00 | 0.00 | 0.00 | 47 | 1014.8 |
| 20260506181535 | 7 | 187 | 4.8 | 22.5 | 0.00 | 0.00 | 0.00 | 46 | 1014.7 |
| 20260506180019 | 8 | 197 | 3.2 | 20.9 | 0.00 | 0.00 | 0.00 | 47 | 1014.7 |
| 20260506174514 | 8 | 212 | 8.0 | 22.5 | 0.00 | 0.00 | 0.00 | 46 | 1014.6 |
| 20260506173010 | 8 | 212 | 6.4 | 20.9 | 0.00 | 0.00 | 0.00 | 46 | 1014.5 |
| 20260506171513 | 8 | 203 | 8.0 | 19.3 | 0.00 | 0.00 | 0.00 | 45 | 1014.4 |
| 20260506170001 | 8 | 203 | 4.8 | 19.3 | 0.00 | 0.00 | 0.00 | 46 | 1014.5 |
| 20260506164557 | 8 | 212 | 8.0 | 22.5 | 0.00 | 0.00 | 0.00 | 44 | 1014.4 |
| 20260506163057 | 8 | 212 | 4.8 | 20.9 | 0.00 | 0.00 | 0.00 | 45 | 1014.4 |
| 20260506161549 | 9 | 207 | 6.4 | 19.3 | 0.00 | 0.00 | 0.00 | 46 | 1014.3 |
| 20260506160045 | 10 | 223 | 4.8 | 20.9 | 0.00 | 0.00 | 0.00 | 45 | 1014.3 |
| 20260506154555 | 10 | 212 | 3.2 | 20.9 | 0.00 | 0.00 | 0.00 | 43 | 1014.4 |
| 20260506153035 | 10 | 203 | 8.0 | 20.9 | 0.00 | 0.00 | 0.00 | 40 | 1014.4 |
| 20260506151532 | 10 | 188 | 6.4 | 19.3 | 0.00 | 0.00 | 0.00 | 40 | 1014.5 |
| 20260506150026 | 10 | 225 | 4.8 | 17.7 | 0.00 | 0.00 | 0.00 | 41 | 1014.5 |
| 20260506144522 | 11 | 118 | 6.4 | 20.9 | 0.00 | 0.00 | 0.00 | 40 | 1014.7 |
| 20260506143024 | 11 | 207 | 11.3 | 25.7 | 0.00 | 0.00 | 0.00 | 40 | 1014.7 |
| 20260506141514 | 11 | 177 | 6.4 | 24.1 | 0.00 | 0.00 | 0.00 | 39 | 1014.7 |
| 20260506140016 | 11 | 195 | 6.4 | 20.9 | 0.00 | 0.00 | 0.00 | 38 | 1014.6 |